Location: Unspecified
(0.0000°N, 0.0000°E)
Time: 00:36:12
(UTC+00:00)

CZ-3B DEB - Pass Details

Date: 18 February 2026
Orbit: 1033 x 41494 km, 26.9° (Epoch: 29 July)

Event Time Altitude Azimuth Distance (km) Brightness Sun altitude
Rises 16:38:10 0° 101° (E) 46,211 ? 23.4°
Reaches altitude 10° 17:57:38 10° 97° (E) 40,132 ? 4.0°
Maximum altitude 19:19:49 16° 90° (E) 30,450 ? -16.1°
Enters shadow 19:34:56 15° 89° (E) 28,254 ? -19.8°
